[Iaude] MPEC V131: 2023 VW3 [a=1.24,e=0.14,i=10.3,H=25.2]
    mpec at marsden.cfa.harvard.edu 
    mpec at marsden.cfa.harvard.edu
       
    Thu Nov  9 08:40:08 EST 2023
    
    
  
M.P.E.C. 2023-V131                             Issued 2023 November 9, 13:38 UT
     The Minor Planet Electronic Circulars contain information on unusual
         minor planets, routine data on comets and natural satellites,
         and occasional editorial announcements.  They are published
    on behalf of Division F of the International Astronomical Union by the
          Minor Planet Center, Smithsonian Astrophysical Observatory,
                          Cambridge, MA 02138, U.S.A.
			  
             Prepared using the Tamkin Foundation Computer Network
                              MPC at CFA.HARVARD.EDU
            URL https://www.minorplanetcenter.net/    ISSN 1523-6714
                                    2023 VW3                                    
Observations:
     K23V03W*1C2023 11 07.29831501 38 35.185+06 16 06.67         20.58GVEV131G96
     K23V03W 1C2023 11 07.30397301 38 34.408+06 16 47.50         21.32GVEV131G96
     K23V03W 1C2023 11 07.30964901 38 33.630+06 17 27.96         20.81GVEV131G96
     K23V03W 1C2023 11 07.31532301 38 32.816+06 18 09.86         21.36GVEV131G96
     K23V03W KC2023 11 07.38807201 38 23.150+06 26 50.10               VEV131I52
     K23V03W KC2023 11 07.39094201 38 22.730+06 27 10.60         21.72GVEV131I52
     K23V03W KC2023 11 07.39381201 38 22.380+06 27 30.80         21.16GVEV131I52
     K23V03W KC2023 11 07.39667401 38 22.040+06 27 51.50         20.68GVEV131I52
     K23V03W |C2023 11 08.14479 01 37 07.77 +07 58 08.5          21.3 VuEV131807
     K23V03W KC2023 11 08.14584201 37 11.220+07 56 36.50         21.35GVEV131I52
     K23V03W KC2023 11 08.14835301 37 10.890+07 56 54.10         20.66GVEV131I52
     K23V03W KC2023 11 08.15062901 37 10.550+07 57 10.50               VEV131I52
     K23V03W |C2023 11 08.15295 01 37 06.67 +07 59 05.5          21.2 VuEV131807
     K23V03W |C2023 11 08.16112 01 37 05.55 +08 00 03.0          20.9 VuEV131807
     K23V03W 1C2023 11 09.02512 01 35 37.40 +09 37 32.9          20.4 VXEV131033
     K23V03W 1C2023 11 09.02939 01 35 36.95 +09 38 00.2          19.9 VXEV131033
     K23V03W 1C2023 11 09.06074 01 35 33.33 +09 41 32.5          21.1 VXEV131033
     K23V03W 1C2023 11 09.06288 01 35 33.07 +09 41 47.7          21.7 VXEV131033
     K23V03W KC2023 11 09.11614401 35 35.135+09 48 15.66         20.75GVEV131I52
     K23V03W KC2023 11 09.11967001 35 34.688+09 48 39.92         20.99GVEV131I52
     K23V03W KC2023 11 09.12319201 35 34.264+09 49 03.97         21.18GVEV131I52
     K23V03W KC2023 11 09.12673901 35 33.839+09 49 28.38         20.81GVEV131I52
Observer details:
033 Karl Schwarzschild Observatory, Tautenburg.  Observers S. Melnikov, C.
    Hogner, F. Ludwig, M. Hartmann, B. Stecklum.  Measurer B. Stecklum.
    1.34-m f/3 Schmidt + CCD.
807 Cerro Tololo Observatory, La Serena.  Observers T. Linder, R. Holmes, L.
    Horn.  0.61-m f/6.5 Dall-Kirkham Astrograph + CCD.
G96 Mt. Lemmon Survey.  Observer D. Rankin.  Measurers E. C. Beshore, D. Fay,
    J. B. Fazekas, D. C. Fuls, A. R. Gibbs, A. D. Grauer, H. Groeller, J. K.
    Hogan, R. A. Kowalski, S. M. Larson, G. J. Leonard, D. Rankin, R. L.
    Seaman, F. C. Shelly, K. W. Wierzchos.  1.5-m reflector + 10K CCD.
I52 Steward Observatory, Mt. Lemmon Station.  Observer H. Groeller.  Measurers
    E. C. Beshore, D. Fay, J. B. Fazekas, D. C. Fuls, A. R. Gibbs, A. D.
    Grauer, H. Groeller, J. K. Hogan, R. A. Kowalski, S. M. Larson, G. J.
    Leonard, D. Rankin, R. L. Seaman, F. C. Shelly, K. W. Wierzchos.  1.0-m
    prime focus + CCD.
Orbital elements:
2023 VW3                                                 Earth MOID = 0.0823 AU
Epoch 2023 Sept. 13.0 TT = JDT 2460200.5                Veres                   
M 342.05705              (2000.0)            P               Q                  
n   0.71519588     Peri.  329.39804     +0.96518909     -0.22963188             
a   1.2383765      Node    44.44990     +0.26117701     +0.82050994             
e   0.1429194      Incl.   10.30035     +0.01402123     +0.52348127             
P   1.38           H   25.25          G   0.15           U   7                  
Residuals in seconds of arc
231107 G96  0.4-  0.0     231108 807  0.2-  0.1+    231109 033  0.9-  0.7-
231107 G96  0.2-  0.1+    231108 I52  0.2+  0.3-    231109 033  1.3-  0.1+
231107 G96  0.0   0.2-    231108 I52  0.1+  0.4-    231109 I52  0.2+  0.1-
231107 G96  0.4-  0.9+    231108 I52  0.5-  0.0     231109 I52  0.1-  0.0
231107 I52  0.7+  0.0     231108 807  0.1+  0.1-    231109 I52  0.0   0.0
231107 I52  0.1-  0.0     231108 807  0.1+  0.1+    231109 I52  0.1+  0.1+
231107 I52  0.1+  0.3-    231109 033  0.3-  0.5+
231107 I52  0.5+  0.1-    231109 033  0.3+  1.1-
Ephemeris:
2023 VW3                 a,e,i = 1.24, 0.14, 10                  q = 1.0614
Date    TT    R. A. (2000) Decl.     Delta      r    Elong.  Phase     V
2023 10 10    02 47 59.3 -45 32 25   0.1085  1.0614   122.7    52.3    22.5
...
2023 10 25    02 08 54.2 -22 34 30   0.08618 1.0667   145.5    31.9    21.4
...
2023 11 02    01 49 16.3 -05 01 03   0.08588 1.0728   158.4    19.9    21.1
...
2023 11 08    01 37 23.1 +07 40 06   0.09281 1.0788   160.2    18.1    21.2
2023 11 09    01 35 42.7 +09 35 40   0.09454 1.0799   159.7    18.6    21.2
2023 11 10    01 34 08.1 +11 27 11   0.09641 1.0810   158.9    19.2    21.3
...
2023 11 16    01 26 49.0 +21 06 26   0.1105  1.0885   152.7    24.6    21.8
...
2023 11 24    01 22 59.1 +30 16 12   0.1353  1.1001   144.2    31.6    22.5
...
2023 12 09    01 31 58.6 +39 49 01   0.1934  1.1259   133.0    39.8    23.5
M. P. C. Staff               (C) Copyright 2023 MPC           M.P.E.C. 2023-V131
    
    
More information about the Iaude
mailing list